KD5UIG Weather Reports


Display with metric or nautical units.
time (UTC)temp
F
wind
direction
speed
MPH
gust
MPH
rain 1hr
in
rain 24hr
in
rain mn
in
humidity
%
barometer
mb
20210417134557 47 315 3.0 9.0 0.00 0.59 0.00 80 1020.5
20210417134100 47 5 4.0 9.0 0.00 0.59 0.00 80 1020.5
20210417133610 47 280 3.0 10.0 0.00 0.59 0.00 81 1020.6
20210417133107 46 13 5.0 10.0 0.00 0.59 0.00 82 1020.7
20210417132826 46 226 3.0 10.0 0.00 0.59 0.00 84 1020.7
20210417132346 45 36 3.0 10.0 0.00 0.59 0.00 84 1020.5
20210417131556 45 145 4.0 10.0 0.00 0.59 0.00 84 1020.5
20210417131046 45 311 3.0 7.0 0.00 0.59 0.00 84 1020.2
20210417130600 45 266 3.0 7.0 0.00 0.59 0.00 86 1020.2
20210417130058 45 271 3.0 8.0 0.00 0.59 0.00 87 1020.1
20210417125320 44 289 2.0 5.0 0.00 0.61 0.00 89 1020.1
20210417124544 43 297 2.0 5.0 0.00 0.61 0.00 89 1020.0
20210417124056 43 296 2.0 5.0 0.00 0.61 0.00 88 1019.9
20210417123550 43 300 2.0 7.0 0.00 0.61 0.00 88 1019.8
20210417123126 44 309 2.0 5.0 0.00 0.61 0.00 88 1019.8
20210417122617 44 296 2.0 5.0 0.00 0.61 0.00 87 1019.7
20210417121613 44 279 2.0 4.0 0.00 0.61 0.00 86 1019.5
20210417121106 44 295 2.0 4.0 0.00 0.61 0.00 85 1019.3
20210417120625 45 288 3.0 4.0 0.00 0.61 0.00 84 1019.4
20210417120113 45 243 2.0 6.0 0.00 0.61 0.00 83 1019.1
20210417115755 45 355 2.0 6.0 0.00 0.61 0.00 82 1019.1
20210417114555 45 317 3.0 8.0 0.00 0.61 0.00 82 1018.8
20210417114101 45 64 3.0 8.0 0.00 0.61 0.00 82 1018.8
20210417113547 46 328 3.0 6.0 0.00 0.61 0.00 82 1018.5
20210417113145 46 360 2.0 7.0 0.00 0.61 0.00 82 1018.8
20210417112940 46 325 2.0 5.0 0.00 0.61 0.00 82 1018.8
20210417112441 46 305 2.0 6.0 0.00 0.61 0.00 82 1018.7
20210417111627 46 360 3.0 6.0 0.00 0.61 0.00 82 1018.6
20210417111116 46 349 2.0 8.0 0.00 0.61 0.00 81 1018.6
20210417110601 46 355 4.0 9.0 0.00 0.61 0.00 81 1018.4
20210417110109 46 341 4.0 8.0 0.00 0.61 0.00 81 1018.4
20210417105923 46 325 5.0 10.0 0.00 0.61 0.00 80 1018.3
20210417105522 46 360 5.0 12.0 0.00 0.61 0.00 80 1018.5
20210417104623 46 19 5.0 12.0 0.00 0.61 0.00 80 1018.5
20210417104118 46 175 3.0 9.0 0.00 0.61 0.00 80 1018.3
20210417103558 47 42 5.0 9.0 0.00 0.61 0.00 80 1018.2
20210417103159 47 318 3.0 9.0 0.00 0.61 0.00 81 1018.1
20210417102847 47 360 4.0 8.0 0.00 0.61 0.00 82 1018.1
20210417102400 47 5 2.0 8.0 0.00 0.61 0.00 82 1018.3
20210417101558 47 287 2.0 5.0 0.00 0.61 0.00 82 1018.3
20210417101101 47 360 2.0 6.0 0.00 0.61 0.00 82 1018.3
20210417100549 48 11 3.0 4.0 0.00 0.61 0.00 81 1018.5
20210417100057 48 15 2.0 6.0 0.00 0.61 0.00 81 1018.5
20210417095729 48 344 2.0 6.0 0.00 0.61 0.00 81 1018.6
20210417095306 48 56 2.0 8.0 0.00 0.61 0.00 81 1018.4
20210417094552 48 30 3.0 8.0 0.00 0.61 0.00 81 1018.3
20210417094111 48 319 3.0 8.0 0.00 0.61 0.00 80 1018.4
20210417093612 48 339 4.0 8.0 0.00 0.61 0.00 80 1018.3
20210417093122 48 331 3.0 10.0 0.00 0.61 0.00 80 1018.2
20210417092800 48 342 4.0 10.0 0.00 0.61 0.00 80 1018.4
20210417092217 48 355 4.0 10.0 0.00 0.61 0.00 80 1018.3
20210417091547 48 302 4.0 10.0 0.00 0.61 0.00 80 1018.2
20210417091126 48 355 3.0 9.0 0.00 0.61 0.00 80 1018.1
20210417090552 48 326 4.0 11.0 0.00 0.61 0.00 80 1018.0
20210417090048 48 90 6.0 11.0 0.00 0.61 0.00 80 1017.7
20210417085914 48 82 6.0 11.0 0.00 0.61 0.00 79 1017.6
20210417085449 48 350 5.0 11.0 0.00 0.61 0.00 79 1017.4
20210417084618 48 317 5.0 17.0 0.00 0.61 0.00 79 1017.2
20210417084106 48 360 6.0 17.0 0.00 0.61 0.00 79 1017.6
20210417083606 48 313 6.0 12.0 0.00 0.61 0.00 79 1017.5
20210417083120 49 42 4.0 13.0 0.00 0.61 0.00 80 1017.5
20210417082731 49 360 5.0 13.0 0.00 0.61 0.00 80 1017.3
20210417082224 49 90 5.0 11.0 0.00 0.61 0.00 80 1017.1
20210417081606 49 5 5.0 11.0 0.00 0.61 0.00 80 1017.0
20210417081057 49 19 5.0 13.0 0.00 0.61 0.00 80 1017.0
20210417080554 49 26 6.0 13.0 0.00 0.61 0.00 80 1017.1
20210417080050 49 22 5.0 10.0 0.00 0.61 0.00 80 1017.3
20210417075834 49 360 5.0 11.0 0.00 0.61 0.00 80 1017.5
20210417075244 49 337 5.0 11.0 0.00 0.61 0.00 80 1017.6
20210417074642 49 333 4.0 10.0 0.00 0.61 0.00 80 1017.8
20210417074048 49 355 5.0 12.0 0.00 0.61 0.00 80 1017.9
20210417073559 49 310 3.0 12.0 0.00 0.61 0.00 80 1018.0
20210417073117 49 22 5.0 10.0 0.00 0.61 0.00 81 1017.9
20210417072709 49 36 4.0 10.0 0.00 0.61 0.00 81 1018.0
20210417072244 49 339 5.0 10.0 0.00 0.61 0.00 81 1017.9
20210417071624 49 349 4.0 10.0 0.00 0.61 0.00 82 1017.9
20210417071044 50 321 3.0 8.0 0.00 0.61 0.00 82 1018.0
20210417070553 50 339 4.0 9.0 0.00 0.61 0.00 83 1017.9
20210417070117 50 15 4.0 9.0 0.00 0.61 0.00 83 1017.8
20210417065906 50 311 2.0 9.0 0.00 0.61 0.00 83 1017.7
20210417065322 50 355 4.0 8.0 0.00 0.61 0.00 83 1017.7
20210417064600 50 98 4.0 8.0 0.00 0.61 0.00 83 1017.7
20210417064115 50 11 3.0 8.0 0.00 0.61 0.00 83 1017.6
20210417063546 50 36 2.0 9.0 0.00 0.61 0.00 82 1017.9
20210417063205 50 9 4.0 9.0 0.00 0.61 0.00 82 1017.9
20210417062827 50 241 4.0 9.0 0.00 0.61 0.00 82 1017.9
20210417062329 50 349 4.0 9.0 0.00 0.61 0.00 82 1018.0
20210417061600 50 333 4.0 10.0 0.00 0.61 0.00 83 1017.9
20210417061059 50 17 5.0 10.0 0.00 0.61 0.00 83 1017.9
20210417060554 50 338 4.0 10.0 0.00 0.61 0.00 84 1017.6
20210417060207 51 360 3.0 10.0 0.00 0.61 0.00 85 1017.6
20210417060103 51 49 4.0 8.0 0.00 0.80 0.00 84 1017.5
20210417055311 51 329 4.0 9.0 0.00 0.80 0.00 85 1017.4
20210417054621 51 341 3.0 10.0 0.00 0.80 0.00 85 1017.5
20210417054118 51 5 5.0 10.0 0.00 0.80 0.00 84 1017.3
20210417053623 51 330 4.0 9.0 0.00 0.80 0.00 85 1017.2
20210417053246 51 355 4.0 9.0 0.00 0.80 0.00 84 1017.1
20210417052959 51 306 4.0 9.0 0.00 0.80 0.00 85 1017.1
20210417052552 51 46 4.0 9.0 0.00 0.80 0.00 84 1017.0
20210417051620 51 30 4.0 11.0 0.00 0.80 0.00 84 1016.9
20210417051043 51 36 5.0 11.0 0.00 0.80 0.00 84 1016.8
20210417050556 51 288 4.0 10.0 0.00 0.80 0.00 84 1016.8
20210417050104 51 58 5.0 10.0 0.00 0.80 0.00 84 1016.9
20210417045845 52 355 4.0 15.0 0.00 0.80 0.80 84 1016.8
20210417045546 52 355 5.0 15.0 0.00 0.80 0.80 84 1016.6
20210417044621 52 337 4.0 11.0 0.00 0.80 0.80 84 1016.6
20210417044106 52 303 5.0 13.0 0.00 0.80 0.80 84 1016.7
20210417043625 52 5 6.0 13.0 0.00 0.80 0.80 85 1016.7
20210417043113 52 44 6.0 11.0 0.00 0.80 0.80 85 1016.9
20210417042757 52 322 3.0 10.0 0.00 0.80 0.80 86 1016.8
20210417042300 52 5 5.0 10.0 0.00 0.80 0.80 87 1016.8
20210417041623 52 28 4.0 10.0 0.00 0.80 0.80 87 1016.6
20210417041102 52 342 4.0 9.0 0.00 0.80 0.80 87 1016.7
20210417040558 53 30 4.0 12.0 0.00 0.80 0.80 86 1016.6
20210417040119 53 41 6.0 12.0 0.00 0.80 0.80 86 1016.5
20210417035723 53 34 6.0 12.0 0.00 0.81 0.80 86 1016.7
20210417035223 53 33 5.0 13.0 0.00 0.81 0.80 87 1016.9
20210417034548 53 355 7.0 12.0 0.00 0.81 0.80 87 1016.7
20210417034126 53 296 5.0 12.0 0.00 0.81 0.80 88 1016.5
20210417033629 53 18 4.0 11.0 0.00 0.81 0.80 89 1016.6
20210417033053 53 9 5.0 13.0 0.00 0.81 0.80 89 1016.2
20210417032724 53 5 5.0 13.0 0.00 0.81 0.80 88 1016.2
20210417032146 53 33 6.0 12.0 0.00 0.81 0.80 88 1016.0
20210417031555 53 17 7.0 13.0 0.00 0.81 0.80 89 1015.7
20210417031056 53 55 5.0 13.0 0.00 0.81 0.80 89 1015.4
20210417030546 53 16 5.0 11.0 0.00 0.81 0.80 89 1015.3
20210417030055 53 17 5.0 11.0 0.00 0.81 0.80 90 1015.3
20210417025753 53 34 4.0 11.0 0.00 0.81 0.80 90 1015.3
20210417025324 53 67 6.0 11.0 0.00 0.81 0.80 90 1015.3
20210417024628 53 47 5.0 17.0 0.00 0.81 0.80 91 1015.3
20210417024121 53 5 8.0 17.0 0.00 0.81 0.80 91 1015.3
20210417023620 54 288 10.0 17.0 0.00 0.81 0.80 92 1015.1
20210417023056 54 325 5.0 15.0 0.00 0.81 0.80 92 1015.1
20210417022800 54 42 7.0 15.0 0.00 0.81 0.80 92 1014.9
20210417022359 55 323 5.0 11.0 0.00 0.81 0.80 92 1014.6
20210417021646 55 291 3.0 11.0 0.00 0.81 0.80 92 1014.4
20210417021120 55 348 4.0 8.0 0.00 0.81 0.80 92 1014.3
20210417020542 55 355 2.0 9.0 0.01 0.81 0.80 92 1014.2
20210417020045 55 36 4.0 10.0 0.01 0.81 0.80 92 1014.1
20210417015837 55 338 3.0 10.0 0.01 0.84 0.80 92 1014.0
20210417015252 55 18 4.0 10.0 0.02 0.84 0.80 92 1013.8
20210417014615 55 24 3.0 9.0 0.02 0.84 0.80 93 1013.7
20210417014056 55 360 4.0 10.0 0.02 0.84 0.80 93 1013.5
20210417013601 55 49 3.0 10.0 0.02 0.84 0.80 94 1013.4
20210417013120 55 63 3.0 10.0 0.02 0.84 0.80 94 1013.4
20210417012933 55 23 5.0 10.0 0.02 0.84 0.80 94 1013.2
20210417012522 55 360 5.0 10.0 0.02 0.84 0.80 94 1013.1
20210417011555 55 20 5.0 9.0 0.02 0.84 0.80 94 1013.0
20210417011105 55 30 2.0 6.0 0.01 0.83 0.79 95 1012.9
20210417010608 55 18 3.0 6.0 0.01 0.83 0.79 95 1012.8
20210417010201 55 338 3.0 8.0 0.01 0.83 0.79 95 1012.8
20210417005916 56 207 3.0 5.0 0.02 0.97 0.79 95 1012.6
20210417005535 56 347 3.0 8.0 0.01 0.96 0.78 95 1012.6
20210417004607 56 35 3.0 8.0 0.01 0.96 0.78 95 1012.6
20210417004121 56 27 2.0 5.0 0.01 0.96 0.78 95 1012.6
20210417003552 56 5 2.0 5.0 0.01 0.96 0.78 95 1012.5
20210417003105 56 338 2.0 5.0 0.01 0.96 0.78 95 1012.4
20210417002836 56 355 2.0 4.0 0.01 0.96 0.78 95 1012.4
20210417002437 56 325 2.0 5.0 0.01 0.96 0.78 95 1012.4
20210417001547 56 20 2.0 6.0 0.01 0.96 0.78 95 1012.2
20210417001140 56 17 2.0 6.0 0.01 0.96 0.78 95 1012.1
20210417000628 56 9 2.0 8.0 0.01 0.96 0.78 95 1012.1
20210417000159 56 350 3.0 8.0 0.01 0.96 0.78 94 1011.9
20210416235929 56 360 2.0 5.0 0.00 1.07 0.77 94 1012.0
20210416235447 56 91 2.0 7.0 0.00 1.07 0.77 94 1011.9
20210416234554 57 109 3.0 7.0 0.00 1.07 0.77 94 1011.8
20210416234109 57 94 2.0 5.0 0.00 1.07 0.77 94 1011.7
20210416233556 57 28 2.0 5.0 0.00 1.07 0.77 94 1011.8
20210416233051 57 71 2.0 7.0 0.00 1.07 0.77 94 1011.6
20210416232845 57 355 2.0 7.0 0.00 1.07 0.77 94 1011.5
20210416232428 57 360 3.0 6.0 0.00 1.07 0.77 94 1011.3
20210416231609 58 37 2.0 4.0 0.00 1.07 0.77 94 1011.2
20210416231141 58 68 2.0 4.0 0.00 1.07 0.77 94 1011.1
20210416230620 58 5 1.0 9.0 0.00 1.07 0.77 94 1011.1
20210416230241 57 17 3.0 9.0 0.00 1.07 0.77 94 1010.9
20210416225941 58 12 3.0 8.0 0.00 1.13 0.77 94 1010.8
20210416225453 58 74 2.0 4.0 0.00 1.13 0.77 93 1010.8
20210416224618 58 9 2.0 5.0 0.00 1.13 0.77 93 1010.9
20210416224048 58 59 3.0 5.0 0.00 1.13 0.77 93 1010.8
20210416223546 58 30 2.0 4.0 0.00 1.13 0.77 93 1010.9
20210416223109 58 10 2.0 4.0 0.00 1.13 0.77 92 1010.8
20210416222927 58 76 1.0 4.0 0.00 1.13 0.77 92 1010.7
20210416222547 58 31 2.0 4.0 0.00 1.13 0.77 92 1010.7
20210416221557 58 71 1.0 4.0 0.00 1.13 0.77 92 1010.5
20210416221048 58 49 2.0 5.0 0.00 1.13 0.77 92 1010.4
20210416220620 59 63 3.0 5.0 0.00 1.13 0.77 91 1010.4
20210416220131 59 122 1.0 4.0 0.00 1.13 0.77 91 1010.3
20210416215942 59 74 2.0 4.0 0.00 1.22 0.77 92 1010.2
20210416215520 58 351 1.0 4.0 0.00 1.22 0.77 92 1010.2
20210416214550 58 73 2.0 5.0 0.00 1.22 0.77 93 1010.0
20210416214116 58 15 1.0 5.0 0.00 1.22 0.77 93 1010.1
20210416213559 58 67 3.0 5.0 0.00 1.22 0.77 93 1010.0
20210416213052 58 56 2.0 5.0 0.00 1.22 0.77 93 1010.1
20210416212820 58 69 2.0 5.0 0.00 1.22 0.77 93 1010.0
20210416212524 58 71 1.0 4.0 0.00 1.22 0.77 93 1010.2
20210416211545 58 39 2.0 4.0 0.00 1.22 0.77 93 1009.9
20210416211119 58 65 3.0 4.0 0.00 1.22 0.77 93 1010.0
20210416210556 58 70 2.0 5.0 0.00 1.22 0.77 93 1010.2
20210416210124 58 41 2.0 5.0 0.00 1.22 0.77 93 1010.2
20210416205709 58 74 2.0 5.0 0.00 1.37 0.77 93 1010.3
20210416205158 58 66 2.0 4.0 0.00 1.37 0.77 93 1010.3
20210416204546 58 28 2.0 4.0 0.00 1.37 0.77 93 1010.1
20210416204107 58 83 2.0 5.0 0.00 1.37 0.77 93 1010.1
20210416203615 58 50 2.0 5.0 0.00 1.37 0.77 94 1010.2
20210416203149 58 40 2.0 4.0 0.00 1.37 0.77 94 1010.2
20210416202833 58 62 2.0 4.0 0.00 1.37 0.77 94 1010.3
20210416202341 58 74 1.0 6.0 0.00 1.37 0.77 95 1010.4
20210416201631 57 75 3.0 6.0 0.00 1.37 0.77 94 1010.2
20210416201100 58 90 3.0 5.0 0.00 1.37 0.77 94 1009.8
20210416200555 58 68 2.0 5.0 0.00 1.37 0.77 95 1009.9
20210416200120 58 62 2.0 4.0 0.00 1.37 0.77 94 1010.0
20210416200012 58 62 2.0 4.0 0.00 1.44 0.77 94 1010.2
20210416195633 58 78 2.0 4.0 0.00 1.44 0.77 95 1010.1
20210416194543 58 63 2.0 5.0 0.00 1.44 0.77 94 1010.2
20210416194109 58 42 2.0 5.0 0.00 1.44 0.77 95 1010.2
20210416193621 58 86 2.0 6.0 0.00 1.44 0.77 94 1010.0
20210416193343 58 84 3.0 6.0 0.00 1.44 0.77 95 1009.8
20210416193156 58 59 2.0 6.0 0.00 1.44 0.77 95 1009.8
20210416192921 58 65 3.0 4.0 0.00 1.44 0.77 95 1009.9
20210416191547 58 48 3.0 5.0 0.00 1.44 0.77 95 1009.9
20210416191122 58 54 3.0 5.0 0.00 1.44 0.77 94 1009.9
20210416190548 58 59 2.0 6.0 0.00 1.44 0.77 95 1009.8
20210416190133 58 78 3.0 6.0 0.00 1.44 0.77 94 1010.0
20210416185742 58 59 3.0 7.0 0.00 1.44 0.77 95 1010.0
20210416185048 58 67 3.0 6.0 0.00 1.44 0.77 94 1010.2
20210416184630 58 44 2.0 6.0 0.00 1.44 0.77 94 1010.0
20210416184048 58 79 3.0 8.0 0.00 1.44 0.77 95 1010.0
20210416183617 58 36 3.0 8.0 0.00 1.44 0.77 94 1010.0
20210416183043 58 91 3.0 6.0 0.00 1.44 0.77 95 1010.2
20210416182859 58 88 3.0 7.0 0.00 1.44 0.77 95 1010.2
20210416182510 58 83 3.0 7.0 0.00 1.44 0.77 95 1010.1
20210416181630 58 45 3.0 6.0 0.00 1.44 0.77 95 1010.2
20210416181104 58 76 3.0 6.0 0.00 1.44 0.77 95 1010.1
20210416180616 58 92 3.0 6.0 0.00 1.44 0.77 95 1010.2
20210416180056 58 91 2.0 5.0 0.01 1.44 0.77 95 1010.2
20210416175753 58 113 3.0 8.0 0.01 1.44 0.77 95 1010.2
20210416175230 58 98 3.0 8.0 0.01 1.44 0.77 95 1010.1
20210416174600 58 58 3.0 6.0 0.01 1.44 0.77 95 1010.2
20210416174056 58 78 4.0 8.0 0.01 1.44 0.77 95 1010.3
20210416173618 58 65 5.0 8.0 0.01 1.44 0.77 95 1010.3
20210416173111 58 67 3.0 5.0 0.01 1.44 0.77 95 1010.4
20210416172824 58 42 3.0 8.0 0.01 1.44 0.77 95 1010.5
20210416172440 58 64 4.0 8.0 0.01 1.44 0.77 95 1010.5
20210416171627 58 66 4.0 11.0 0.01 1.44 0.77 95 1010.5
20210416171057 58 80 4.0 11.0 0.01 1.44 0.77 95 1010.5
20210416170546 58 62 3.0 8.0 0.00 1.43 0.76 95 1010.5
20210416170129 58 45 3.0 8.0 0.00 1.43 0.76 95 1010.5
20210416165903 58 49 3.0 7.0 0.00 1.43 0.76 95 1010.5
20210416165335 58 76 3.0 5.0 0.00 1.43 0.76 95 1010.7
20210416164620 58 44 3.0 8.0 0.00 1.43 0.76 95 1010.6
20210416164111 58 50 4.0 8.0 0.00 1.43 0.76 95 1010.6
20210416163543 58 61 3.0 5.0 0.00 1.43 0.76 95 1010.7
20210416163059 58 61 3.0 6.0 0.00 1.43 0.76 95 1010.8
20210416162725 58 61 3.0 6.0 0.00 1.43 0.76 95 1010.8
20210416162228 58 84 4.0 6.0 0.00 1.43 0.76 95 1010.8
20210416161556 58 71 3.0 6.0 0.00 1.43 0.76 95 1010.7
20210416161050 58 42 2.0 6.0 0.00 1.43 0.76 95 1010.7
20210416160549 58 71 2.0 5.0 0.00 1.43 0.76 95 1010.7
20210416160110 58 80 3.0 5.0 0.00 1.43 0.76 95 1010.8
20210416155908 58 74 3.0 5.0 0.00 1.43 0.76 95 1010.9
20210416155253 58 63 3.0 6.0 0.01 1.43 0.76 95 1010.9
20210416154548 58 55 2.0 6.0 0.01 1.43 0.76 95 1011.0
20210416154052 58 76 3.0 6.0 0.01 1.43 0.76 95 1011.0
20210416153612 58 51 2.0 3.0 0.01 1.43 0.76 95 1010.9
20210416153101 58 71 2.0 3.0 0.01 1.43 0.76 95 1010.8
20210416152722 58 99 2.0 4.0 0.01 1.43 0.76 95 1010.9
20210416152232 58 77 2.0 4.0 0.01 1.43 0.76 95 1010.9
20210416151555 58 74 1.0 3.0 0.01 1.43 0.76 95 1010.9
20210416151121 58 74 2.0 3.0 0.01 1.43 0.76 95 1010.8
20210416150601 58 95 1.0 4.0 0.01 1.43 0.76 96 1010.7
20210416150310 57 80 3.0 4.0 0.01 1.43 0.76 96 1010.8
20210416145950 58 64 2.0 4.0 0.01 1.43 0.76 96 1010.7
20210416145828 58 65 0.0 2.0 0.00 1.42 0.75 96 1010.9
20210416144628 57 65 1.0 3.0 0.01 1.42 0.75 96 1010.6
20210416144047 57 63 0.0 4.0 0.01 1.42 0.75 96 1010.8
20210416143622 57 49 2.0 6.0 0.01 1.42 0.75 96 1010.7
20210416143102 57 5 1.0 6.0 0.02 1.42 0.75 96 1010.4
20210416142852 57 69 3.0 6.0 0.04 1.42 0.75 96 1010.2
20210416142540 57 88 2.0 6.0 0.06 1.42 0.75 96 1010.0
20210416141548 57 93 3.0 6.0 0.30 1.42 0.75 96 1009.8
20210416141111 57 88 3.0 6.0 0.49 1.42 0.75 96 1010.0
20210416140551 57 55 2.0 6.0 0.50 1.42 0.75 96 1009.9
20210416140231 57 97 3.0 7.0 0.54 1.42 0.75 96 1009.9
20210416140020 57 73 2.0 6.0 0.55 1.42 0.75 96 1010.0
20210416135708 57 88 2.0 6.0 0.56 1.42 0.75 96 1010.0